Location: Aldenham
(51.6667°N, 0.3500°W)
Time: 03:46:33
(UTC+00:00)

A-11 Canister half - Pass Details

Date: 18 February 2026
Orbit: 1512 x 1687 km, 47.2° (Epoch: 7 March)

Event Time Altitude Azimuth Distance (km) Brightness Sun altitude
Rises 22:28:42 0° 248° (WSW) 4,934 11.8 -44.3°
Reaches altitude 10° 22:31:55 10° 246° (WSW) 3,938 11.2 -44.6°
Enters shadow 22:34:13 19° 243° (WSW) 3,250 10.7 -44.8°
Maximum altitude 22:41:52 65° 168° (SSE) 1,785 - -45.5°
Drops below altitude 10° 22:51:31 10° 89° (E) 3,831 - -46.3°
Sets 22:54:36 0° 87° (E) 4,793 - -46.5°
